| time (UTC) | temp C | wind direction | speed KPH | gust KPH | rain 1hr cm | rain 24hr cm | rain mn cm | humidity % | barometer mb |
| 20260504120304 | 11 | 245 | 8.0 | 16.1 | 0.00 | 0.00 | 0.00 | 49 | 1013.9 |
| 20260504110305 | 9 | 212 | 6.4 | 14.5 | 0.00 | 0.00 | 0.00 | 51 | 1013.8 |
| 20260504100305 | 8 | 216 | 8.0 | 16.1 | 0.00 | 0.00 | 0.00 | 54 | 1013.9 |
| 20260504081804 | 8 | 201 | 9.7 | 14.5 | 0.00 | 0.00 | 0.00 | 53 | 1014.1 |
| 20260504081305 | 8 | 206 | 9.7 | 19.3 | 0.00 | 0.00 | 0.00 | 53 | 1014.1 |
| 20260504080805 | 8 | 206 | 9.7 | 16.1 | 0.00 | 0.00 | 0.00 | 53 | 1014.1 |
| 20260504080304 | 8 | 208 | 9.7 | 19.3 | 0.00 | 0.00 | 0.00 | 54 | 1014.0 |
| 20260504070304 | 8 | 215 | 12.9 | 19.3 | 0.00 | 0.00 | 0.00 | 52 | 1014.1 |
| 20260504050304 | 10 | 220 | 12.9 | 22.5 | 0.00 | 0.00 | 0.00 | 46 | 1014.2 |
| 20260504045804 | 10 | 223 | 14.5 | 25.7 | 0.00 | 0.00 | 0.00 | 47 | 1014.2 |
| 20260504045305 | 10 | 213 | 12.9 | 22.5 | 0.00 | 0.00 | 0.00 | 47 | 1014.1 |
| 20260504044804 | 10 | 223 | 12.9 | 20.9 | 0.00 | 0.00 | 0.00 | 48 | 1014.1 |
| 20260504044304 | 10 | 227 | 12.9 | 22.5 | 0.00 | 0.00 | 0.00 | 48 | 1014.1 |
| 20260504043804 | 10 | 221 | 11.3 | 20.9 | 0.00 | 0.00 | 0.00 | 48 | 1014.1 |
| 20260504043304 | 10 | 220 | 11.3 | 27.4 | 0.00 | 0.00 | 0.00 | 48 | 1014.2 |
| 20260504041804 | 10 | 217 | 11.3 | 19.3 | 0.00 | 0.00 | 0.00 | 47 | 1014.1 |
| 20260504041304 | 10 | 220 | 11.3 | 22.5 | 0.00 | 0.00 | 0.00 | 46 | 1014.0 |
| 20260504040817 | 10 | 205 | 11.3 | 19.3 | 0.00 | 0.00 | 0.00 | 46 | 1014.0 |
| 20260504040304 | 10 | 212 | 11.3 | 20.9 | 0.00 | 0.00 | 0.00 | 46 | 1014.0 |
| 20260504035804 | 10 | 213 | 11.3 | 20.9 | 0.00 | 0.00 | 0.00 | 46 | 1013.9 |
| 20260504034804 | 11 | 210 | 11.3 | 22.5 | 0.00 | 0.00 | 0.00 | 44 | 1013.8 |
| 20260504033804 | 11 | 216 | 11.3 | 19.3 | 0.00 | 0.00 | 0.00 | 45 | 1013.7 |
| 20260504033304 | 11 | 216 | 9.7 | 19.3 | 0.00 | 0.00 | 0.00 | 45 | 1013.6 |
| 20260504032803 | 11 | 216 | 11.3 | 16.1 | 0.00 | 0.00 | 0.00 | 44 | 1013.5 |
| 20260504032304 | 11 | 207 | 11.3 | 19.3 | 0.00 | 0.00 | 0.00 | 44 | 1013.5 |
| 20260504031804 | 11 | 212 | 11.3 | 19.3 | 0.00 | 0.00 | 0.00 | 44 | 1013.5 |
| 20260504031304 | 11 | 215 | 11.3 | 19.3 | 0.00 | 0.00 | 0.00 | 44 | 1013.4 |
| 20260504030304 | 11 | 217 | 9.7 | 20.9 | 0.00 | 0.00 | 0.00 | 44 | 1013.4 |
| 20260504025803 | 11 | 215 | 9.7 | 20.9 | 0.00 | 0.00 | 0.00 | 43 | 1013.3 |
| 20260504025305 | 11 | 217 | 11.3 | 19.3 | 0.00 | 0.00 | 0.00 | 43 | 1013.4 |
| 20260504024804 | 11 | 223 | 9.7 | 19.3 | 0.00 | 0.00 | 0.00 | 43 | 1013.4 |
| 20260504023804 | 11 | 214 | 9.7 | 19.3 | 0.00 | 0.00 | 0.00 | 42 | 1013.4 |
| 20260504023304 | 11 | 220 | 8.0 | 12.9 | 0.00 | 0.00 | 0.00 | 41 | 1013.4 |
| 20260504022803 | 11 | 226 | 8.0 | 12.9 | 0.00 | 0.00 | 0.00 | 42 | 1013.4 |
| 20260504022305 | 11 | 222 | 8.0 | 12.9 | 0.00 | 0.00 | 0.00 | 42 | 1013.5 |
| 20260504021804 | 11 | 215 | 9.7 | 19.3 | 0.00 | 0.00 | 0.00 | 42 | 1013.5 |
| 20260504021304 | 11 | 222 | 9.7 | 14.5 | 0.00 | 0.00 | 0.00 | 42 | 1013.5 |
| 20260504020304 | 11 | 218 | 8.0 | 14.5 | 0.00 | 0.00 | 0.00 | 44 | 1013.6 |
| 20260504015804 | 11 | 236 | 8.0 | 11.3 | 0.00 | 0.00 | 0.00 | 44 | 1013.4 |
| 20260504015304 | 11 | 236 | 8.0 | 12.9 | 0.00 | 0.00 | 0.00 | 45 | 1013.4 |
| 20260504014804 | 11 | 232 | 6.4 | 11.3 | 0.00 | 0.00 | 0.00 | 45 | 1013.4 |
| 20260504014305 | 11 | 235 | 6.4 | 8.0 | 0.00 | 0.00 | 0.00 | 45 | 1013.4 |
| 20260504013806 | 11 | 229 | 4.8 | 11.3 | 0.00 | 0.00 | 0.00 | 45 | 1013.3 |
| 20260504013306 | 11 | 243 | 4.8 | 11.3 | 0.00 | 0.00 | 0.00 | 44 | 1013.3 |
| 20260504012805 | 11 | 235 | 6.4 | 12.9 | 0.00 | 0.00 | 0.00 | 43 | 1013.3 |
| 20260504012306 | 12 | 236 | 8.0 | 16.1 | 0.00 | 0.00 | 0.00 | 42 | 1013.4 |
| 20260504011806 | 12 | 237 | 8.0 | 12.9 | 0.00 | 0.00 | 0.00 | 41 | 1013.3 |
| 20260504011306 | 12 | 240 | 6.4 | 11.3 | 0.00 | 0.00 | 0.00 | 41 | 1013.3 |
| 20260504010805 | 12 | 240 | 8.0 | 11.3 | 0.00 | 0.00 | 0.00 | 40 | 1013.2 |
| 20260504010306 | 12 | 238 | 6.4 | 16.1 | 0.00 | 0.00 | 0.00 | 41 | 1013.2 |
| 20260504005806 | 12 | 253 | 8.0 | 12.9 | 0.00 | 0.00 | 0.00 | 39 | 1013.2 |
| 20260504004806 | 12 | 245 | 8.0 | 14.5 | 0.00 | 0.00 | 0.00 | 38 | 1013.2 |
| 20260504004305 | 13 | 240 | 8.0 | 16.1 | 0.00 | 0.00 | 0.00 | 37 | 1013.2 |
| 20260504003806 | 13 | 260 | 9.7 | 19.3 | 0.00 | 0.00 | 0.00 | 36 | 1013.1 |
| 20260504003306 | 13 | 259 | 8.0 | 24.1 | 0.00 | 0.00 | 0.00 | 36 | 1013.0 |
| 20260504002805 | 13 | 254 | 9.7 | 14.5 | 0.00 | 0.00 | 0.00 | 37 | 1012.9 |
| 20260504002306 | 13 | 267 | 8.0 | 14.5 | 0.00 | 0.00 | 0.00 | 37 | 1012.8 |
| 20260504001305 | 13 | 270 | 6.4 | 14.5 | 0.00 | 0.00 | 0.00 | 36 | 1012.6 |
| 20260503235806 | 13 | 263 | 6.4 | 14.5 | 0.00 | 0.00 | 0.00 | 37 | 1012.5 |
| 20260503235306 | 13 | 257 | 8.0 | 16.1 | 0.00 | 0.00 | 0.00 | 36 | 1012.5 |
| 20260503234805 | 13 | 255 | 8.0 | 16.1 | 0.00 | 0.00 | 0.00 | 36 | 1012.4 |
| 20260503234306 | 13 | 260 | 8.0 | 20.9 | 0.00 | 0.00 | 0.00 | 36 | 1012.4 |
| 20260503233305 | 14 | 284 | 9.7 | 22.5 | 0.00 | 0.00 | 0.00 | 35 | 1012.3 |
| 20260503232805 | 14 | 256 | 9.7 | 19.3 | 0.00 | 0.00 | 0.00 | 35 | 1012.3 |
| 20260503232306 | 14 | 259 | 8.0 | 20.9 | 0.00 | 0.00 | 0.00 | 35 | 1012.3 |
| 20260503231806 | 14 | 260 | 4.8 | 19.3 | 0.00 | 0.00 | 0.00 | 35 | 1012.3 |
| 20260503231306 | 14 | 255 | 9.7 | 19.3 | 0.00 | 0.00 | 0.00 | 34 | 1012.2 |
| 20260503230805 | 14 | 253 | 8.0 | 19.3 | 0.00 | 0.00 | 0.00 | 35 | 1012.2 |
| 20260503230306 | 14 | 263 | 11.3 | 24.1 | 0.00 | 0.00 | 0.00 | 35 | 1012.2 |
| 20260503225305 | 15 | 265 | 9.7 | 19.3 | 0.00 | 0.00 | 0.00 | 35 | 1012.2 |
| 20260503224806 | 15 | 244 | 4.8 | 22.5 | 0.00 | 0.00 | 0.00 | 36 | 1012.1 |
| 20260503224305 | 15 | 271 | 9.7 | 20.9 | 0.00 | 0.00 | 0.00 | 34 | 1012.1 |
| 20260503223806 | 15 | 289 | 6.4 | 19.3 | 0.00 | 0.00 | 0.00 | 36 | 1012.1 |
| 20260503223305 | 15 | 259 | 12.9 | 20.9 | 0.00 | 0.00 | 0.00 | 34 | 1012.1 |
| 20260503222805 | 15 | 253 | 8.0 | 24.1 | 0.00 | 0.00 | 0.00 | 34 | 1012.1 |
| 20260503221806 | 15 | 283 | 4.8 | 16.1 | 0.00 | 0.00 | 0.00 | 35 | 1012.1 |
| 20260503221305 | 15 | 282 | 4.8 | 12.9 | 0.00 | 0.00 | 0.00 | 34 | 1012.1 |
| 20260503220805 | 15 | 297 | 9.7 | 24.1 | 0.00 | 0.00 | 0.00 | 34 | 1012.2 |
| 20260503220306 | 15 | 270 | 9.7 | 22.5 | 0.00 | 0.00 | 0.00 | 33 | 1012.2 |
| 20260503215806 | 15 | 274 | 8.0 | 19.3 | 0.00 | 0.00 | 0.00 | 34 | 1012.2 |
| 20260503214806 | 15 | 276 | 6.4 | 24.1 | 0.00 | 0.00 | 0.00 | 34 | 1012.1 |
| 20260503213805 | 15 | 266 | 14.5 | 27.4 | 0.00 | 0.00 | 0.00 | 33 | 1012.0 |
| 20260503212305 | 16 | 280 | 8.0 | 16.1 | 0.00 | 0.00 | 0.00 | 32 | 1011.9 |
| 20260503211806 | 16 | 264 | 11.3 | 25.7 | 0.00 | 0.00 | 0.00 | 33 | 1011.9 |
| 20260503211305 | 15 | 276 | 9.7 | 20.9 | 0.00 | 0.00 | 0.00 | 33 | 1011.9 |
| 20260503210805 | 15 | 308 | 4.8 | 19.3 | 0.00 | 0.00 | 0.00 | 34 | 1011.9 |
| 20260503210305 | 15 | 309 | 4.8 | 16.1 | 0.00 | 0.00 | 0.00 | 35 | 1012.0 |
| 20260503205805 | 15 | 274 | 9.7 | 19.3 | 0.00 | 0.00 | 0.00 | 33 | 1012.1 |
| 20260503205305 | 14 | 288 | 4.8 | 11.3 | 0.00 | 0.00 | 0.00 | 35 | 1012.1 |
| 20260503204806 | 14 | 297 | 4.8 | 14.5 | 0.00 | 0.00 | 0.00 | 36 | 1012.2 |
| 20260503204306 | 15 | 283 | 8.0 | 19.3 | 0.00 | 0.00 | 0.00 | 32 | 1012.2 |
| 20260503203805 | 15 | 290 | 3.2 | 16.1 | 0.00 | 0.00 | 0.00 | 33 | 1012.1 |
| 20260503203305 | 15 | 264 | 6.4 | 19.3 | 0.00 | 0.00 | 0.00 | 34 | 1012.2 |
| 20260503202805 | 15 | 324 | 9.7 | 22.5 | 0.00 | 0.00 | 0.00 | 32 | 1012.2 |
| 20260503202306 | 15 | 272 | 8.0 | 25.7 | 0.00 | 0.00 | 0.00 | 32 | 1012.3 |
| 20260503201305 | 15 | 259 | 14.5 | 32.2 | 0.00 | 0.00 | 0.00 | 30 | 1012.3 |
| 20260503200806 | 15 | 307 | 11.3 | 24.1 | 0.00 | 0.00 | 0.00 | 32 | 1012.3 |
| 20260503200306 | 15 | 277 | 12.9 | 20.9 | 0.00 | 0.00 | 0.00 | 31 | 1012.3 |
| 20260503195805 | 15 | 309 | 9.7 | 32.2 | 0.00 | 0.00 | 0.00 | 33 | 1012.3 |
| 20260503195305 | 15 | 258 | 9.7 | 22.5 | 0.00 | 0.00 | 0.00 | 36 | 1012.3 |
| 20260503194805 | 15 | 283 | 11.3 | 27.4 | 0.00 | 0.00 | 0.00 | 30 | 1012.5 |
| 20260503194305 | 15 | 283 | 14.5 | 32.2 | 0.00 | 0.00 | 0.00 | 33 | 1012.5 |
| 20260503193806 | 15 | 286 | 12.9 | 29.0 | 0.00 | 0.00 | 0.00 | 31 | 1012.6 |
| 20260503193305 | 15 | 302 | 9.7 | 25.7 | 0.00 | 0.00 | 0.00 | 35 | 1012.8 |
| 20260503192306 | 15 | 265 | 4.8 | 24.1 | 0.00 | 0.00 | 0.00 | 33 | 1013.0 |
| 20260503191805 | 15 | 317 | 11.3 | 29.0 | 0.00 | 0.00 | 0.00 | 33 | 1013.1 |
| 20260503191305 | 15 | 318 | 17.7 | 35.4 | 0.00 | 0.00 | 0.00 | 33 | 1013.2 |
| 20260503190805 | 15 | 281 | 8.0 | 19.3 | 0.00 | 0.00 | 0.00 | 36 | 1013.1 |
| 20260503185805 | 14 | 321 | 8.0 | 20.9 | 0.00 | 0.00 | 0.00 | 32 | 1013.3 |
| 20260503185305 | 14 | 318 | 14.5 | 32.2 | 0.00 | 0.00 | 0.00 | 34 | 1013.3 |
| 20260503184805 | 14 | 312 | 16.1 | 29.0 | 0.00 | 0.00 | 0.00 | 32 | 1013.4 |
| 20260503184305 | 13 | 269 | 14.5 | 27.4 | 0.00 | 0.00 | 0.00 | 36 | 1013.5 |
| 20260503183805 | 14 | 264 | 8.0 | 27.4 | 0.00 | 0.00 | 0.00 | 38 | 1013.4 |
| 20260503183306 | 14 | 290 | 16.1 | 32.2 | 0.00 | 0.00 | 0.00 | 35 | 1013.5 |
| 20260503181805 | 14 | 263 | 11.3 | 29.0 | 0.00 | 0.00 | 0.00 | 36 | 1013.6 |
| 20260503181305 | 14 | 270 | 11.3 | 27.4 | 0.00 | 0.00 | 0.00 | 35 | 1013.7 |
| 20260503180805 | 13 | 316 | 9.7 | 22.5 | 0.00 | 0.00 | 0.00 | 38 | 1013.6 |
| 20260503180306 | 13 | 309 | 8.0 | 19.3 | 0.00 | 0.00 | 0.00 | 34 | 1013.7 |
| 20260503175805 | 14 | 311 | 11.3 | 20.9 | 0.00 | 0.00 | 0.00 | 37 | 1013.6 |
| 20260503174805 | 14 | 283 | 11.3 | 22.5 | 0.00 | 0.00 | 0.00 | 36 | 1013.7 |
| 20260503174305 | 13 | 285 | 9.7 | 25.7 | 0.00 | 0.00 | 0.00 | 39 | 1013.8 |
| 20260503173805 | 13 | 262 | 16.1 | 27.4 | 0.00 | 0.00 | 0.00 | 36 | 1013.8 |
| 20260503173305 | 13 | 317 | 16.1 | 32.2 | 0.00 | 0.00 | 0.00 | 33 | 1013.8 |
| 20260503172805 | 13 | 315 | 8.0 | 35.4 | 0.00 | 0.00 | 0.00 | 37 | 1013.7 |
| 20260503172305 | 13 | 306 | 17.7 | 35.4 | 0.00 | 0.00 | 0.00 | 36 | 1013.8 |
| 20260503171805 | 13 | 316 | 8.0 | 27.4 | 0.00 | 0.00 | 0.00 | 34 | 1014.0 |
| 20260503171305 | 13 | 279 | 14.5 | 32.2 | 0.00 | 0.00 | 0.00 | 36 | 1014.0 |
| 20260503170805 | 13 | 309 | 14.5 | 29.0 | 0.00 | 0.00 | 0.00 | 35 | 1014.0 |
| 20260503170305 | 13 | 283 | 19.3 | 41.8 | 0.00 | 0.00 | 0.00 | 34 | 1014.2 |
| 20260503150305 | 10 | 305 | 12.9 | 32.2 | 0.00 | 0.00 | 0.00 | 42 | 1014.8 |
| 20260503140305 | 9 | 292 | 8.0 | 22.5 | 0.00 | 0.00 | 0.00 | 53 | 1014.9 |
| 20260503131305 | 7 | 337 | 9.7 | 27.4 | 0.00 | 0.00 | 0.00 | 56 | 1014.9 |
| 20260503130805 | 7 | 309 | 14.5 | 33.8 | 0.00 | 0.00 | 0.00 | 55 | 1014.9 |
| 20260503130305 | 7 | 324 | 11.3 | 32.2 | 0.00 | 0.00 | 0.00 | 54 | 1014.8 |